| time (UTC) | temp C | wind direction | speed KPH | gust KPH | rain 1hr cm | rain 24hr cm | rain mn cm | humidity % | barometer mb |
| 20260503050816 | 17 | 332 | 17.7 | 24.1 | 0.00 | 0.00 | 0.00 | 23 | 1020.1 |
| 20260503045816 | 17 | 328 | 11.3 | 17.7 | 0.00 | 0.00 | 0.00 | 23 | 1019.6 |
| 20260503044816 | 17 | 354 | 9.7 | 20.9 | 0.00 | 0.00 | 0.00 | 23 | 1019.6 |
| 20260503043836 | 17 | 1 | 11.3 | 29.0 | 0.00 | 0.00 | 0.00 | 23 | 1019.6 |
| 20260503042836 | 17 | 335 | 17.7 | 24.1 | 0.00 | 0.00 | 0.00 | 24 | 1019.1 |
| 20260503041816 | 17 | 335 | 16.1 | 24.1 | 0.00 | 0.00 | 0.00 | 23 | 1019.3 |
| 20260503040816 | 17 | 276 | 9.7 | 29.0 | 0.00 | 0.00 | 0.00 | 23 | 1019.2 |
| 20260503035816 | 17 | 353 | 9.7 | 19.3 | 0.00 | 0.00 | 0.00 | 23 | 1019.1 |
| 20260503034816 | 17 | 42 | 16.1 | 20.9 | 0.00 | 0.00 | 0.00 | 23 | 1019.0 |
| 20260503033816 | 17 | 329 | 9.7 | 16.1 | 0.00 | 0.00 | 0.00 | 24 | 1018.9 |
| 20260503032816 | 17 | 271 | 11.3 | 17.7 | 0.00 | 0.00 | 0.00 | 24 | 1018.6 |
| 20260503031836 | 17 | 10 | 1.6 | 6.4 | 0.00 | 0.00 | 0.00 | 24 | 1018.8 |
| 20260503030815 | 17 | 8 | 9.7 | 17.7 | 0.00 | 0.00 | 0.00 | 24 | 1018.7 |
| 20260503025815 | 17 | 3 | 11.3 | 17.7 | 0.00 | 0.00 | 0.00 | 24 | 1018.3 |
| 20260503024815 | 17 | 305 | 4.8 | 8.0 | 0.00 | 0.00 | 0.00 | 24 | 1018.4 |
| 20260503023816 | 17 | 338 | 6.4 | 9.7 | 0.00 | 0.00 | 0.00 | 24 | 1018.4 |
| 20260503022815 | 18 | 354 | 6.4 | 14.5 | 0.00 | 0.00 | 0.00 | 24 | 1018.4 |
| 20260503021815 | 18 | 359 | 11.3 | 17.7 | 0.00 | 0.00 | 0.00 | 23 | 1018.5 |
| 20260503020815 | 18 | 327 | 6.4 | 8.0 | 0.00 | 0.00 | 0.00 | 23 | 1018.7 |
| 20260503015815 | 18 | 348 | 11.3 | 22.5 | 0.00 | 0.00 | 0.00 | 23 | 1018.0 |
| 20260503014836 | 19 | 26 | 6.4 | 16.1 | 0.00 | 0.00 | 0.00 | 21 | 1018.1 |
| 20260503013816 | 20 | 65 | 3.2 | 4.8 | 0.00 | 0.00 | 0.00 | 17 | 1018.3 |
| 20260503012836 | 20 | 120 | 3.2 | 8.0 | 0.00 | 0.00 | 0.00 | 15 | 1017.6 |
| 20260503011815 | 20 | 152 | 4.8 | 8.0 | 0.00 | 0.00 | 0.00 | 16 | 1017.9 |
| 20260503010835 | 20 | 133 | 4.8 | 11.3 | 0.00 | 0.00 | 0.00 | 15 | 1017.9 |
| 20260503005835 | 20 | 103 | 8.0 | 12.9 | 0.00 | 0.00 | 0.00 | 15 | 1017.7 |
| 20260503004815 | 21 | 112 | 6.4 | 11.3 | 0.00 | 0.00 | 0.00 | 16 | 1018.0 |
| 20260503003815 | 21 | 110 | 11.3 | 16.1 | 0.00 | 0.00 | 0.00 | 15 | 1018.1 |
| 20260503002815 | 21 | 127 | 8.0 | 17.7 | 0.00 | 0.00 | 0.00 | 16 | 1018.1 |
| 20260503001815 | 21 | 128 | 6.4 | 11.3 | 0.00 | 0.00 | 0.00 | 16 | 1018.2 |
| 20260503000835 | 21 | 95 | 9.7 | 14.5 | 0.00 | 0.00 | 0.00 | 16 | 1018.2 |
| 20260502235815 | 21 | 140 | 9.7 | 16.1 | 0.00 | 0.00 | 0.00 | 16 | 1018.3 |
| 20260502234815 | 21 | 154 | 11.3 | 16.1 | 0.00 | 0.00 | 0.00 | 16 | 1018.5 |
| 20260502233815 | 21 | 137 | 14.5 | 22.5 | 0.00 | 0.00 | 0.00 | 16 | 1018.5 |
| 20260502232815 | 21 | 142 | 11.3 | 22.5 | 0.00 | 0.00 | 0.00 | 17 | 1018.5 |
| 20260502231815 | 21 | 143 | 9.7 | 25.7 | 0.00 | 0.00 | 0.00 | 16 | 1018.7 |
| 20260502230815 | 21 | 142 | 11.3 | 16.1 | 0.00 | 0.00 | 0.00 | 16 | 1018.8 |
| 20260502225815 | 21 | 85 | 14.5 | 19.3 | 0.00 | 0.00 | 0.00 | 16 | 1019.3 |
| 20260502224815 | 21 | 87 | 12.9 | 20.9 | 0.00 | 0.00 | 0.00 | 17 | 1019.6 |
| 20260502223835 | 21 | 85 | 9.7 | 17.7 | 0.00 | 0.00 | 0.00 | 18 | 1019.8 |
| 20260502222815 | 21 | 149 | 11.3 | 16.1 | 0.00 | 0.00 | 0.00 | 17 | 1020.5 |
| 20260502221815 | 21 | 98 | 8.0 | 16.1 | 0.00 | 0.00 | 0.00 | 17 | 1020.5 |
| 20260502220815 | 21 | 136 | 8.0 | 12.9 | 0.00 | 0.00 | 0.00 | 18 | 1020.7 |
| 20260502215815 | 21 | 103 | 9.7 | 20.9 | 0.00 | 0.00 | 0.00 | 18 | 1020.5 |
| 20260502214835 | 21 | 77 | 12.9 | 17.7 | 0.00 | 0.00 | 0.00 | 17 | 1020.7 |
| 20260502213815 | 20 | 105 | 8.0 | 12.9 | 0.00 | 0.00 | 0.00 | 17 | 1021.0 |
| 20260502212858 | 20 | 153 | 14.5 | 24.1 | 0.00 | 0.00 | 0.00 | 17 | 1021.2 |
| 20260502211817 | 20 | 127 | 6.4 | 14.5 | 0.00 | 0.00 | 0.00 | 16 | 1021.4 |
| 20260502210817 | 20 | 91 | 11.3 | 16.1 | 0.00 | 0.00 | 0.00 | 17 | 1021.3 |
| 20260502205817 | 20 | 70 | 12.9 | 19.3 | 0.00 | 0.00 | 0.00 | 17 | 1021.8 |
| 20260502204817 | 20 | 120 | 4.8 | 16.1 | 0.00 | 0.00 | 0.00 | 16 | 1022.2 |
| 20260502203817 | 20 | 92 | 11.3 | 17.7 | 0.00 | 0.00 | 0.00 | 17 | 1022.1 |
| 20260502202817 | 20 | 161 | 14.5 | 19.3 | 0.00 | 0.00 | 0.00 | 17 | 1022.6 |
| 20260502201817 | 20 | 109 | 3.2 | 14.5 | 0.00 | 0.00 | 0.00 | 17 | 1022.4 |
| 20260502200817 | 20 | 69 | 3.2 | 11.3 | 0.00 | 0.00 | 0.00 | 18 | 1023.0 |
| 20260502195816 | 19 | 100 | 8.0 | 14.5 | 0.00 | 0.00 | 0.00 | 20 | 1023.1 |
| 20260502194817 | 19 | 202 | 4.8 | 12.9 | 0.00 | 0.00 | 0.00 | 19 | 1023.3 |
| 20260502193816 | 18 | 165 | 1.6 | 4.8 | 0.00 | 0.00 | 0.00 | 21 | 1023.1 |
| 20260502192817 | 18 | 103 | 8.0 | 14.5 | 0.00 | 0.00 | 0.00 | 20 | 1023.1 |
| 20260502191817 | 18 | 86 | 11.3 | 17.7 | 0.00 | 0.00 | 0.00 | 21 | 1023.3 |
| 20260502190817 | 18 | 92 | 14.5 | 17.7 | 0.00 | 0.00 | 0.00 | 22 | 1023.4 |
| 20260502185816 | 19 | 141 | 8.0 | 17.7 | 0.00 | 0.00 | 0.00 | 21 | 1023.5 |
| 20260502184816 | 18 | 105 | 4.8 | 16.1 | 0.00 | 0.00 | 0.00 | 21 | 1023.7 |
| 20260502183816 | 18 | 100 | 4.8 | 14.5 | 0.00 | 0.00 | 0.00 | 21 | 1023.4 |
| 20260502182817 | 18 | 132 | 6.4 | 16.1 | 0.00 | 0.00 | 0.00 | 25 | 1024.5 |
| 20260502181816 | 17 | 122 | 4.8 | 12.9 | 0.00 | 0.00 | 0.00 | 29 | 1024.6 |
| 20260502180816 | 17 | 101 | 6.4 | 14.5 | 0.00 | 0.00 | 0.00 | 31 | 1024.4 |
| 20260502163816 | 15 | 86 | 1.6 | 6.4 | 0.00 | 0.00 | 0.00 | 38 | 1024.9 |
| 20260502162837 | 15 | 105 | 0.0 | 6.4 | 0.00 | 0.00 | 0.00 | 37 | 1025.0 |
| 20260502161816 | 13 | 138 | 0.0 | 3.2 | 0.00 | 0.00 | 0.00 | 43 | 1024.7 |
| 20260502160816 | 13 | 104 | 3.2 | 4.8 | 0.00 | 0.00 | 0.00 | 45 | 1024.7 |
| 20260502151816 | 12 | 115 | 3.2 | 6.4 | 0.00 | 0.00 | 0.00 | 48 | 1024.6 |
| 20260502150816 | 12 | 106 | 3.2 | 6.4 | 0.00 | 0.00 | 0.00 | 44 | 1024.3 |
| 20260502123816 | 6 | 329 | 6.4 | 8.0 | 0.00 | 0.00 | 0.00 | 56 | 1022.7 |
| 20260502122816 | 6 | 329 | 6.4 | 8.0 | 0.00 | 0.00 | 0.00 | 54 | 1022.7 |
| 20260502121816 | 7 | 329 | 0.0 | 3.2 | 0.00 | 0.00 | 0.00 | 54 | 1023.0 |
| 20260502120816 | 7 | 329 | 4.8 | 6.4 | 0.00 | 0.00 | 0.00 | 53 | 1022.9 |
| 20260502115816 | 6 | 329 | 4.8 | 6.4 | 0.00 | 0.00 | 0.00 | 51 | 1022.6 |
| 20260502114816 | 6 | 329 | 4.8 | 6.4 | 0.00 | 0.00 | 0.00 | 50 | 1022.6 |
| 20260502113815 | 6 | 329 | 4.8 | 8.0 | 0.00 | 0.00 | 0.00 | 51 | 1022.6 |
| 20260502112816 | 7 | 329 | 8.0 | 9.7 | 0.00 | 0.00 | 0.00 | 49 | 1022.9 |
| 20260502111816 | 7 | 349 | 6.4 | 8.0 | 0.00 | 0.00 | 0.00 | 49 | 1022.8 |
| 20260502110815 | 7 | 349 | 6.4 | 8.0 | 0.00 | 0.00 | 0.00 | 50 | 1022.9 |
| 20260502105815 | 7 | 349 | 6.4 | 8.0 | 0.00 | 0.00 | 0.00 | 50 | 1023.0 |
| 20260502104816 | 7 | 349 | 6.4 | 8.0 | 0.00 | 0.00 | 0.00 | 49 | 1022.9 |
| 20260502103836 | 7 | 349 | 6.4 | 8.0 | 0.00 | 0.00 | 0.00 | 50 | 1022.6 |
| 20260502102815 | 7 | 316 | 4.8 | 6.4 | 0.00 | 0.00 | 0.00 | 46 | 1022.9 |
| 20260502101815 | 8 | 316 | 3.2 | 4.8 | 0.00 | 0.00 | 0.00 | 44 | 1023.2 |
| 20260502100815 | 9 | 316 | 0.0 | 1.6 | 0.00 | 0.00 | 0.00 | 42 | 1023.5 |
| 20260502090815 | 8 | 309 | 3.2 | 6.4 | 0.00 | 0.00 | 0.00 | 45 | 1022.8 |
| 20260502070816 | 10 | 34 | 3.2 | 4.8 | 0.00 | 0.00 | 0.00 | 39 | 1023.1 |
| 20260502065835 | 10 | 0.0 | 1.6 | 0.00 | 0.00 | 0.00 | 39 | 1022.8 | |
| 20260502064815 | 10 | 247 | 6.4 | 11.3 | 0.00 | 0.00 | 0.00 | 40 | 1022.8 |
| 20260502063815 | 10 | 343 | 6.4 | 8.0 | 0.00 | 0.00 | 0.00 | 40 | 1022.5 |
| 20260502062836 | 10 | 350 | 1.6 | 4.8 | 0.00 | 0.00 | 0.00 | 41 | 1022.3 |
| 20260502061815 | 10 | 355 | 6.4 | 8.0 | 0.00 | 0.00 | 0.00 | 39 | 1022.6 |
| 20260502060815 | 11 | 153 | 1.6 | 1.6 | 0.00 | 0.00 | 0.00 | 37 | 1022.5 |
| 20260502055816 | 12 | 346 | 3.2 | 4.8 | 0.00 | 0.00 | 0.00 | 35 | 1022.6 |
| 20260502054816 | 12 | 277 | 4.8 | 6.4 | 0.00 | 0.00 | 0.00 | 34 | 1022.6 |
| 20260502053836 | 13 | 253 | 8.0 | 12.9 | 0.00 | 0.00 | 0.00 | 31 | 1022.8 |
| 20260502052816 | 13 | 186 | 4.8 | 14.5 | 0.00 | 0.00 | 0.00 | 30 | 1022.9 |
| 20260502051816 | 14 | 9 | 6.4 | 20.9 | 0.00 | 0.00 | 0.00 | 29 | 1022.8 |